Regional Weather Roundup
Issued by NWS Pendleton, OR

Home | Current Version | Previous Version | Text Only | Print | Product List | Glossary On
Versions: 1 2 3 4 5 6 7 8 9 10 11 12 13 14 15 16 17 18 19 20 21 22 23 24 25 26 27 28 29 30 31 32 33 34 35 36 37 38 39 40 41 42 43 44 45 46 47 48 49 50
000
ASUS46 KPDT 281625
RWRPDT
PENDLETON REGIONAL WEATHER ROUNDUP
NATIONAL WEATHER SERVICE PENDLETON OREGON
900 AM PDT TUE MAR 28 2017

NOTE: FAIR INDICATES FEW OR NO CLOUDS BELOW 12,000 FEET WITH NO
SIGNIFICANT WEATHER AND/OR OBSTRUCTIONS TO VISIBILITY.

# INDICATES UNOFFICIAL STATION AND DATA

WAZ520-281710-
EAST SLOPES OF WASHINGTON CASCADES

CITY            SKY/WX      TMP DP  RH  WIND    PRES   REMARKS
#CLE ELUM HS    N/A         37  35  92  CALM    30.15R
#CLE ELUM LAKE  N/A         35  34  96  CALM    30.21R
#GLENWOOD       N/A         40  38  92  SW6     30.28R
#NELSON 3SW     N/A         35  34  96  CALM    30.45R
#NILE           N/A         38  35  89  CALM    29.49S
#TEANAWAY 4NE   N/A         39  37  92  CALM    N/A
#TROUT LAKE 1NE N/A         37  36  96  CALM    30.30S
#TROUT LAKE 1E  N/A         40  38  92  CALM    30.29R
$$

WAZ521-281710-
SIMCOE HIGHLANDS

CITY            SKY/WX      TMP DP  RH  WIND    PRES   REMARKS
#BICKLETON HS   N/A         38  36  92  SW15    30.24S WCI 29
#CENTERVILLE 1SWN/A         40  35  82  CALM    30.28R
#GOLDENDALE 1NE N/A         41  33  73  CALM    N/A
#GOLDENDALE 4W  N/A         42  22  45  CALM    30.29R
#GOODNOE HILLS  N/A         44  36  73  W7      30.18S
#LYLE 6NE       N/A         40  38  92  S1      30.28R
#PITT 4SE       N/A         37  35  92  SW1     30.34R
$$

WAZ026-281710-
KITTITAS VALLEY

CITY            SKY/WX      TMP DP  RH  WIND    PRES   REMARKS
ELLENSBURG AP   CLOUDY      44  36  73  CALM    30.20S
#ELLENSBURG CWU N/A         42  36  79  CALM    30.16S
#ELLENSBURG 3NE N/A         40  36  85  CALM    28.28R
#ELLENSBURG 1E  N/A         42  N/A N/A CALM    N/A
#ELLENSBURG 13S N/A         41  34  76  W2      N/A
#KITTITAS 4N    N/A         41  36  82  SE2     30.21R
#KITTITAS 3S    N/A         42  37  82  CALM    30.22S
#THORP 6N       N/A         37  35  92  N5      30.24S
$$

WAZ027-281710-
YAKIMA VALLEY

CITY            SKY/WX      TMP DP  RH  WIND    PRES   REMARKS
SUNNYSIDE AP    CLOUDY      47  35  63  S5      30.26R
YAKIMA AIRPORT  CLOUDY      46  37  71  CALM    30.23S
YAKIMA-VAGABOND CLOUDY      45  35  68  S3      30.20S
#DONALD 2NE     N/A         59   3  10  S14     28.91S
#GRANDVIEW      N/A         48  35  60  CALM    30.28S
#MABTON         N/A         46  43  89  CALM    30.25R
#MOXEE 2E       N/A         46   0  14  E2      30.16S
#NACHES 2SW     N/A         42  37  82  CALM    30.22R
#TERRACE HTS    N/A         45  37  73  CALM    30.22S
#TOPPENISH      N/A         46  39  76  CALM    30.17S
#WEST VALLEY    N/A         43  37  79  CALM    30.22F
#W YAKIMA       N/A         43  36  76  CALM    30.25R
#WHITE SWAN 5E  N/A         48  38  68  CALM    30.24R
#WILEY CITY 3W  N/A         42  34  73  CALM    30.19S
$$

WAZ028-281710-
LOWER COLUMBIA BASIN...WASHINGTON

CITY            SKY/WX      TMP DP  RH  WIND    PRES   REMARKS
HANFORD         CLOUDY      48  35  60  NE3     30.21R
PASCO           CLOUDY      49  35  58  SW21G25 30.28R WCI 42
PROSSER AWOS    N/A         52  37  56  SW8     30.30R
RICHLAND AWOS   CLOUDY      50  39  66  SW16G24 30.27S
#BENTON CITY    N/A         47  38  71  W2      30.18R
#CONNELL 5N     N/A         43  39  86  S6      30.27R
#CONNELL 5NW    N/A         43  40  89  S7      30.22R
#ELTOPIA 6NW    N/A         45  40  82  SW6     29.21R
#KAHLOTUS       N/A         44  38  79  W20G26  30.27R WCI 36
#KENNEWICK 3S   N/A         45  38  76  SW8     30.28R
#PATERSON       N/A         46  40  79  NW5     30.29R
#SAGEMOOR 2W    N/A         45  38  76  SW8     30.14R
#TOUCHET 2S     N/A         48  39  71  S7      30.28S
#WEST PASCO     N/A         49  38  66  S7      30.31R
$$

WAZ029-281710-
FOOTHILLS OF THE BLUES...WASHINGTON

CITY            SKY/WX      TMP DP  RH  WIND    PRES   REMARKS
WALLA WALLA AP  CLOUDY      47  36  65  S12     30.29S WCI 42
#CLYDE 6NW      N/A         43  37  79  SW15    30.27S WCI 36
#DAYTON SCHOOL  N/A         44  30  58  S6      30.29R
#LOWDEN 2SE     N/A         49  39  68  W7      30.27R
#PLEASANT VIEW 1N/A         42  37  82  S16G24  30.31R WCI 34
#PRESCOTT       N/A         47  39  74  S3      30.29R
#WHITMAN COLLEGEN/A         48  37  65  SE3     30.36R
#WAITSBURG 5S   N/A         43  37  79  SW1     30.40R
#WAITSBURG 8N   N/A         42  N/A N/A S10     30.23R
#WALLA WALLA 5E N/A         47  38  71  S9      N/A
#WHITMAN MISSIONN/A         48  38  68  CALM    30.32R
$$

WAZ030-281710-
BLUE MOUNTAINS...WASHINGTON

CITY            SKY/WX      TMP DP  RH  WIND    PRES   REMARKS
#DIXIE 5SE      N/A         38  33  82  S10     30.19R
$$

ORZ009-041-WAZ024-281710-
COLUMBIA RIVER GORGE

CITY            SKY/WX      TMP DP  RH  WIND    PRES   REMARKS
HOOD RIVER AP   CLOUDY      46  39  76  NW3     30.31R
THE DALLES AP   CLOUDY      47  41  79  CALM    30.32R
#ARLINGTON AIRPON/A         46  39  76  W1      30.31S
#CELILO DOT     N/A         46  37  71  S3      N/A
#LYLE           N/A         46  41  83  CALM    30.33R
#MOSIER 1S      N/A         45  36  70  CALM    30.29R
#MURDOCK        N/A         46  41  83  CALM    30.28S
#RUFUS DOT      N/A         47  39  74  CALM    N/A
#SMITHVILLE     N/A         46  42  86  N2      30.27R

$$

ORZ510-281710-
NORTH CENTRAL OREGON

CITY            SKY/WX      TMP DP  RH  WIND    PRES   REMARKS
#ANTELOPE       N/A         39  32  76  SW5     30.22R
#CHENOWITH 1W   N/A         40  37  89  NW7     N/A
#COW CYN RST AREN/A         39  31  73  SW8     N/A
#DUFUR          N/A         40  37  89  CALM    30.27S
#DUFUR 9E       N/A         42  35  76  SW15    30.35S WCI 34
#GRASS VALLEY 1SN/A         41  35  79  SW9     30.39S
#KENT DOT       N/A         41  28  59  N15     N/A    WCI 33
#MAUPIN SCHOOL  N/A         46  38  73  CALM    30.33F
#MORO SCHOOL    N/A         44  38  79  SW1     30.33R
#SHANIKO 5WSW   N/A         37  27  67  N17     N/A    WCI 27
#SHANIKO 4NW    N/A         36  30  79  SW3     30.24S
#TYGH VALLEY 2NEN/A         46  37  71  N1      30.30R
#WAPANITIA AIRPON/A         44  34  68  SW7     30.32S
#WASCO DOT      N/A         44  37  76  S2      N/A
#WASCO 5NE      N/A         43  38  82  CALM    30.30S
$$

ORZ511-281710-
CENTRAL OREGON

CITY            SKY/WX      TMP DP  RH  WIND    PRES   REMARKS
BEND AIRPORT    MOCLDY      41  28  59  SW13    30.30R WCI 34
MADRAS AIRPORT  CLOUDY      39  32  76  S7      30.31S
PRINEVILLE AP   CLOUDY      39  32  76  CALM    30.30R
REDMOND AIRPORT CLOUDY      41  30  65  N5      30.30R
#ASHWOOD SCHOOL N/A         41  34  76  CALM    30.23S
#BEND 1SW       N/A         38  32  79  SW3     N/A
#BEND-AWBREY    N/A         40  33  76  S3      30.34R
#BEND-KIM LN    N/A         40  35  82  CALM    30.28R
#CULVER         N/A         41  33  73  SW3     30.26R
#CULVER 8W      N/A         43  32  65  CALM    30.25R
#POWELL BUTTE   N/A         40  29  64  E2      30.22R
#PRINEVILLE     N/A         38  33  82  NE1     30.44R
#PRINEVILLE 3N  N/A         40  35  82  E7      30.34R

$$


ORZ509-281710-
EAST SLOPES OF OREGON CASCADES

CITY            SKY/WX      TMP DP  RH  WIND    PRES   REMARKS
SISTERS AWOS    N/A         39  32  76  CALM    30.24R
#BLUE BOX PASS  N/A         32  N/A N/A SW8     N/A
#CAMP SHERMAN   N/A         40  32  73  CALM    30.41R
#LA PINE DOT    N/A         36  28  72  CALM    N/A
#LA PINE 4SW    N/A         35  29  78  S2      30.29R
#LA PINE 4NW    N/A         34  29  82  CALM    30.42R
#LAVA BUTTE DOT N/A         35  28  75  SE2     N/A
#SISTERS 3N     N/A         40  30  67  S2      30.38R
#SUNRIVER       N/A         37  31  79  S2      30.38R
#TUMALO 3W      N/A         36  31  82  CALM    30.23R
#WANOGA BUTTE D N/A         30  28  92  CALM    N/A

$$

ORZ044-281710-
LOWER COLUMBIA BASIN...OREGON

CITY            SKY/WX      TMP DP  RH  WIND    PRES   REMARKS
HERMISTON       CLOUDY      48  38  68  SW9     30.29S
#BOARDMAN SCHOOLN/A         49  39  68  S12     30.29R WCI 44
#BOARDMAN 8SW   N/A         48  40  74  SW10    30.29S
#ECHO 8SW       N/A         48  39  71  W5      30.29S
#I-84 EX 198 DOTN/A         47  37  68  N8      N/A
#IONE SCHOOL    N/A         46  28  49  CALM    30.32S
#UMATILLA       N/A         49  38  66  CALM    30.24R
$$

ORZ507-281710-
NORTHERN FOOTHILLS OF THE BLUES

CITY            SKY/WX      TMP DP  RH  WIND    PRES   REMARKS
PENDLETON AIRPT CLOUDY      46  36  68  S7      30.28S
#ADAMS 3WNW     N/A         44  38  79  CALM    30.31S
#ATHENA         N/A         44  35  70  SW1     30.34R
#CAYUSE         N/A         44  36  73  E3      30.31R
#HELIX SCHOOL   N/A         44  37  76  N7      30.30S
#HELIX 3N       N/A         43  37  79  S9      30.23R
#HOLDMAN 5SE    N/A         47  38  71  SW7     30.27R
#HOLDMAN 6E     N/A         44  38  79  S7      30.11R
#M-F FERNDALE   N/A         48  34  58  CALM    30.26S
#M-F GROVE ELEM N/A         47  35  63  CALM    30.27R
#M-FREEWATER 5SEN/A         46  36  68  CALM    30.28R
#PENDLETON DNTN N/A         46  37  71  NE2     30.28S
#PDT AQUATIC CTRN/A         47  38  71  E2      30.29S
#PDT SUNRIDGE   N/A         47  38  71  SE3     30.31S
#PENDLETON 7NW  N/A         46  36  68  SW5     25.80S
#PILOT ROCK 1S  N/A         47  31  53  SE6     30.28R
#PILOT ROCK     N/A         46  38  73  SW6     30.29S
#TUTUILLA       N/A         46  39  76  S1      30.31S
#WESTON SCHOOL  N/A         44  33  65  SW2     30.29S

$$

ORZ508-281710-
SOUTHERN FOOTHILLS OF THE BLUES

CITY            SKY/WX      TMP DP  RH  WIND    PRES   REMARKS
LEXINGTON       CLOUDY      48  36  63  SW7     30.31S
#AJAX           N/A         42  28  57  S6      30.40S
#CONDON SCHOOL  N/A         41  34  76  SW10    30.20R
#CONDON 5W      N/A         38  29  70  SW12    30.23R WCI 30
#HEPPNER EOC    N/A         45  34  65  CALM    30.24S
#HEPPNER 4NE    N/A         42  34  73  CALM    30.31R
#LEXINGTON 2SE  N/A         50  35  56  CALM    30.27R
#MIKKALO        N/A         46  35  65  W5      30.37R
#OLEX 4N        N/A         44  39  82  W2      30.27R
#RUGGS 5NE      N/A         43  30  60  S7      30.43S
#RUGGS 2SW      N/A         43  32  65  SW12    30.33R WCI 37

$$

ORZ502-503-281710-
BLUE MOUNTAINS

CITY            SKY/WX      TMP DP  RH  WIND    PRES   REMARKS
MEACHAM         CLOUDY      35  31  85  CALM    30.26R
#BATTLE MTN DOT N/A         33  29  85  S3      N/A
#GREENHORN 9SW  N/A         33  32  96  CALM    26.45R
#HARDMAN 10S    N/A         35  30  82  S3      30.45R
#HEPPNER 15SE   N/A         35  29  78  NW1     30.24S
#LADD CYN SMT   N/A         37  31  79  SE6     N/A
#LADD CREEK ODOTN/A         36  35  96  CALM    N/A
#LONG CREEK HS  N/A         37  35  92  CALM    N/A
#N POWDER DOT   N/A         37  34  89  CALM    N/A
#PIKES PEAK     N/A         35  29  78  W15     27.99S WCI 25
#TOLLGATE       N/A         29  28  96  SW1     30.06R
#TROY SCHOOL    N/A         42  37  82  CALM    30.17R
#UKIAH          N/A         36  34  92  CALM    30.27R
#WESTON 4E      N/A         37  33  85  SE3     30.29R
$$

ORZ505-281710-
JOHN DAY BASIN

CITY            SKY/WX      TMP DP  RH  WIND    PRES   REMARKS
JOHN DAY        CLOUDY      39  33  79  CALM    30.30R
#JOHN DAY KJDY  N/A         36  N/A N/A N1      29.81R
#ANTELOPE 9ESE  N/A         44  36  73  E2      N/A
#DAYVILLE SCHOOLN/A         40  33  76  E1      30.27R
#MITCHELL       N/A         40  35  82  CALM    30.43R
#MITCHELL 8NW   N/A         39  30  70  SW2     30.26S
#MONUMENT HS    N/A         42  33  70  CALM    30.26R
#MT. VERNON 5SE N/A         36  32  85  CALM    30.25R
#SPRAY SCHOOL   N/A         43  N/A N/A CALM    N/A
#WINLOCK        N/A         42  34  73  CALM    30.23S
$$

ORZ506-281710-
OCHOCO AND JOHN DAY HIGHLANDS

CITY            SKY/WX      TMP DP  RH  WIND    PRES   REMARKS
#HORSE RIDGE DO N/A         34  28  78  SE1     N/A
#PAULINA SCHOOL N/A         36  29  75  S1      N/A
#PINE MTN OBS   N/A         30  27  88  NW2     N/A
#SENECA 9NW     N/A         30  29  96  CALM    30.37R
$$

ORZ049-281710-
GRANDE RONDE VALLEY

CITY            SKY/WX      TMP DP  RH  WIND    PRES   REMARKS
LA GRANDE       CLOUDY      39  36  89  CALM    30.28R
#COVE           N/A         39  37  92  NE2     30.30R
#COVE SCHOOL    N/A         39  36  89  CALM    30.28R
#COVE 6NW       N/A         39  37  92  CALM    30.35R
#ELGIN 3N       N/A         38  34  85  CALM    30.24R
#ELGIN 1E       N/A         40  36  85  CALM    N/A
#IMBLER SCHOOL  N/A         38  35  89  CALM    30.24R
#ISLAND CITY 4N N/A         46  44  93  CALM    30.32S
#LADD CYN DOT   N/A         40  34  79  SW3     N/A
#UNION 1S       N/A         41  35  79  S1      30.34R
$$

ORZ050-281710-
WALLOWA COUNTY

CITY            SKY/WX      TMP DP  RH  WIND    PRES   REMARKS
JOSEPH AIRPORT  PTCLDY      37  30  75  CALM    30.26R
#IMNAHA SCHOOL  N/A         44  35  70  N1      30.28R
#IMNAHA 10S     N/A         52  33  48  S7      29.84S
#JOSEPH 3N      N/A         36  29  75  E1      30.25R
#JOSEPH 3W      N/A         36  26  67  CALM    30.05R
#LOSTINE        N/A         39  33  79  CALM    30.14R
#LOSTINE 3SE    N/A         38  32  79  E2      30.30R
#MT HOWARD 8000 N/A         23  19  84  W3      30.13R
#PROMISE 1S     N/A         37  30  75  E6      30.40R
#WALLOWA SCHOOL N/A         37  34  89  CALM    30.24R



$$



USA.gov is the U.S. government's official web portal to all federal, state and local government web resources and services.